• Join FlightAware (Why Join?)
  • Login
  • US Flag 
08:08PM EDT


 

Airport Tracker/Info


-or-


 

Live Flight TrackerFlight Track Log ✈ N1944E ✈ 25-Jun-2013 ✈ KEKS - KCOD

Flight Track Log - Related Links

Times and Time Zones

All times are in EDT time to prevent confusion due to time zone crossing. See the N1944E flight status page for this flight to view local times or setup timezone preferences in your user account.

Time Position Orientation Groundspeed Altitude Reporting Facility
EDT Latitude Longitude Course Direction KTS MPH feet Rate Location/Type
09:10PM 45.3292 -111.4908 112° Southeast 128 147 10,600  Level Salt Lake Center
09:11PM 45.3111 -111.4392 116° Southeast 144 166 11,400 840 Climbing Salt Lake Center
09:12PM 45.2997 -111.3775 105° East 163 188 12,400 1,260 Climbing Salt Lake Center
09:13PM 45.2808 -111.3067 111° Southeast 161 185 14,000 1,260 Climbing Salt Lake Center
09:14PM 45.1835 -111.3174 108° East  Level Estimated
09:14PM 45.2686 -111.2489 107° East 155 178 15,100  Level Salt Lake Center
09:15PM 45.1647 -111.2516 112° Southeast  Level FlightAware Approximate
09:15PM 45.2500 -111.1903 114° Southeast 161 185 15,900  Level Salt Lake Center
09:16PM 45.2289 -111.1314 117° Southeast 166 191 16,500 540 Climbing Salt Lake Center
09:17PM 45.2056 -111.0728 119° Southeast 170 196 17,000 240 Climbing Salt Lake Center
09:18PM 45.1769 -111.0125 124° Southeast 180 207 17,100  Climbing Salt Lake Center
09:19PM 45.1531 -110.9353 114° Southeast 205 236 17,100  Level Salt Lake Center
09:20PM 45.1275 -110.8586 115° Southeast 213 245 17,100  Level Salt Lake Center
09:21PM 45.0964 -110.7700 116° Southeast 219 252 17,100 -60 Level Salt Lake Center
09:22PM 45.0653 -110.6867 118° Southeast 241 277 17,000  Descending Salt Lake Center
09:23PM 45.0369 -110.5931 113° Southeast 234 269 17,100  Climbing Salt Lake Center
09:24PM 45.0125 -110.5142 114° Southeast 230 265 17,100  Level Salt Lake Center
09:25PM 44.9714 -110.4642 139° Southeast 211 243 17,100  Level Salt Lake Center
09:26PM 44.9153 -110.4186 150° Southeast 208 239 17,100  Level Salt Lake Center
09:27PM 44.8881 -110.3325 114° Southeast 237 273 17,100 -60 Level Salt Lake Center
09:28PM 44.8636 -110.2328 109° East 243 280 17,000  Descending Salt Lake Center
09:29PM 44.8428 -110.1519 110° East 237 273 17,100  Climbing Salt Lake Center
09:30PM 44.8200 -110.0736 112° Southeast 230 265 17,100  Level Salt Lake Center
09:31PM 44.7931 -109.9803 112° Southeast 230 265 17,100 -60 Level Salt Lake Center
09:32PM 44.7706 -109.9000 112° Southeast 230 265 17,000 -480 Descending Salt Lake Center
09:33PM 44.7417 -109.8028 113° Southeast 235 270 16,200 -660 Descending Salt Lake Center
09:34PM 44.7158 -109.7181 113° Southeast 241 277 15,700 -660 Descending Salt Lake Center
09:35PM 44.6869 -109.6261 114° Southeast 243 280 14,900 -360 Descending Salt Lake Center
09:36PM 44.6686 -109.5450 108° East 231 266 15,000 60 Climbing Salt Lake Center